Flag for Austria Weather past 2 weeks in Saalfelden am Steinernen Meer, Salzburg, Austria

Now
50 °F

Passing clouds.


Feels Like: 50 °F
Forecast: 43 / 64 °F
Wind: 1 mph from North

Location: Salzburg-Flughafen


UV Index: 0 (Low)

Visibility: 5 mi


Pressure: 29.71 "Hg

Humidity: 94%

Dew point: 48 °F

Location of Saalfelden am Steinernen MeerLocation

Historic Weather in Saalfelden am Steinernen Meer

°F

Saalfelden am Steinernen Meer temperature yesterday

Maximum temperature yesterday: 61 °F (at 3:50 PM)
Minimum temperature yesterday: 37 °F (at 12:20 AM)
Average temperature yesterday: 48 °F

Past Weeks' High & Low Weather Summary

 TemperatureHumidityPressure
High72 °F (Apr 7, 3:50 PM)100% (Apr 5, 1:50 AM)30.36 "Hg (Apr 5, 1:50 AM)
Low27 °F (Apr 17, 5:20 AM)33% (Apr 7, 3:20 PM)29.74 "Hg (Apr 19, 5:50 PM)
Average48 °F77%30.07 "Hg
* Reported Apr 5 1:20 AM — Apr 20 1:50 AM, Saalfelden am Steinernen Meer, Weather by CustomWeather, © 2014

Note: Actual official high and low records may vary slightly from our data, if they occured in-between our weather recording intervals... More about our weather records

Advertising

Historic Weather Conditions — Data for Previous 24 hours

 ConditionsComfort  
Time TempWeatherWind HumidityBarometerVisibility
1:50 AM
Apr 20
50 °FPartly cloudy.2 mph94%29.74 "Hg4 mi
1:20 AM50 °FPartly cloudy.1 mph94%29.74 "Hg4 mi
12:50 AM50 °FPassing clouds.1 mph94%29.74 "Hg6 mi
12:20 AM50 °FPassing clouds.2 mph94%29.77 "HgN/A
11:50 PM
Apr 19
52 °FSprinkles. Overcast.2 mph88%29.77 "HgN/A
11:20 PM52 °FLight rain. Partly cloudy.3 mph88%29.77 "HgN/A
10:50 PM54 °FPartly cloudy.1 mph77%29.77 "HgN/A
10:20 PM55 °FPartly cloudy.6 mph67%29.77 "HgN/A
9:50 PM54 °FLight rain. Partly cloudy.2 mph77%29.77 "HgN/A
9:20 PM54 °FPassing clouds.2 mph77%29.77 "HgN/A
8:50 PM54 °FPartly sunny.5 mph77%29.77 "HgN/A
8:20 PM54 °FPartly sunny.5 mph77%29.77 "HgN/A
7:50 PM57 °FPartly sunny.3 mph63%29.77 "HgN/A
7:20 PM57 °FScattered clouds.8 mph63%29.77 "HgN/A
6:50 PM59 °FScattered clouds.8 mph59%29.74 "HgN/A
6:20 PM59 °FScattered clouds.9 mph59%29.77 "HgN/A
5:50 PM59 °FScattered clouds.10 mph63%29.74 "HgN/A
5:20 PM61 °FPartly sunny.13 mph63%29.77 "HgN/A
4:50 PM61 °FBroken clouds.13 mph63%29.77 "HgN/A
4:20 PM61 °FBroken clouds.10 mph63%29.77 "HgN/A
3:50 PM61 °FBroken clouds.8 mph63%29.77 "HgN/A
3:20 PM59 °FScattered clouds.8 mph68%29.77 "HgN/A
2:50 PM57 °FScattered clouds.5 mph63%29.80 "HgN/A
2:20 PM55 °FScattered clouds.3 mph67%29.80 "HgN/A
1:50 PM54 °FPartly sunny.5 mph72%29.80 "HgN/A
1:20 PM54 °FBroken clouds.2 mph72%29.80 "HgN/A
12:50 PM52 °FPartly sunny.3 mph72%29.83 "HgN/A
12:20 PM50 °FBroken clouds.2 mph76%29.83 "HgN/A
11:50 AM48 °FBroken clouds.6 mph82%29.83 "HgN/A
11:20 AM48 °FScattered clouds.3 mph76%29.86 "HgN/A
10:50 AM46 °FScattered clouds.2 mph82%29.86 "HgN/A
10:20 AM46 °FBroken clouds.1 mph82%29.86 "HgN/A
9:50 AM45 °FBroken clouds.3 mph76%29.86 "HgN/A
9:20 AM43 °FBroken clouds.3 mph81%29.86 "HgN/A
8:50 AM43 °FPartly sunny.2 mph81%29.86 "HgN/A
8:20 AM41 °FBroken clouds.3 mph87%29.86 "HgN/A
7:50 AM37 °FBroken clouds.5 mph93%29.86 "HgN/A
7:20 AM37 °FPartly sunny.3 mph93%29.86 "HgN/A
6:50 AM37 °FPassing clouds.2 mph93%29.86 "HgN/A
6:20 AM37 °FPassing clouds.3 mph100%29.86 "Hg5 mi
5:50 AM37 °FPartly cloudy.3 mph93%29.86 "Hg5 mi
4:50 AM37 °FPartly cloudy.2 mph100%29.89 "Hg4 mi
4:20 AM37 °FDrizzle. Fog.2 mph100%29.89 "Hg3 mi
3:50 AM37 °FDrizzle. Fog.2 mph100%29.89 "Hg3 mi
3:20 AM37 °FPassing clouds.2 mph93%29.89 "Hg6 mi
2:50 AM37 °FPassing clouds.3 mph100%29.89 "HgN/A
2:20 AM37 °FPassing clouds.1 mph93%29.89 "HgN/A
Weather by CustomWeather, © 2014

See weather overview